This is the latest recevied weather packets stored in our database for station/object DC4AT. If no packets are shown the sender has not sent any weather packets the latest 10 day(s).
| Time | Temp. | Humidity | Pressure | Rain* | Wind** | Luminosity | Snow |
|---|---|---|---|---|---|---|---|
| 1787812058 | 15° C | 85% | 1016.7 hPa | 0 mm | - | 171 W/m² | - |
| 1787811458 | 15° C | 85% | 1016.6 hPa | 0 mm | - | 160 W/m² | - |
| 1787810858 | 14.44° C | 84% | 1016.7 hPa | 0 mm | - | 139 W/m² | - |
| 1787810258 | 14.44° C | 83% | 1016.7 hPa | 0 mm | - | 121 W/m² | - |
| 1787809658 | 13.89° C | 82% | 1016.6 hPa | 0 mm | - | 100 W/m² | - |
| 1787809058 | 13.33° C | 81% | 1016.6 hPa | 0 mm | - | 81 W/m² | - |
| 1787808458 | 13.33° C | 82% | 1016.9 hPa | 0 mm | - | 47 W/m² | - |
| 1787807858 | 12.78° C | 83% | 1017 hPa | 0 mm | - | 19 W/m² | - |
| 1787807258 | 13.33° C | 84% | 1017.1 hPa | 0 mm | - | 16 W/m² | - |
| 1787806658 | 13.33° C | 84% | 1016.6 hPa | 0 mm | - | 12 W/m² | - |
| 1787806058 | 13.33° C | 84% | 1016.6 hPa | 0 mm | - | 11 W/m² | - |
| 1787805458 | 13.33° C | 84% | 1016.5 hPa | 0 mm | - | 7 W/m² | - |
| 1787804858 | 13.33° C | 84% | 1016.6 hPa | 0 mm | - | 5 W/m² | - |
| 1787804258 | 13.33° C | 83% | 1016.6 hPa | 0 mm | - | 0 W/m² | - |
| 1787803658 | 13.33° C | 83% | 1016.5 hPa | 0 mm | - | 0 W/m² | - |
| 1787803058 | 13.33° C | 83% | 1016.5 hPa | 0 mm | - | 0 W/m² | - |
| 1787802458 | 13.33° C | 83% | 1016.5 hPa | 0 mm | - | 0 W/m² | - |
| 1787801858 | 13.33° C | 83% | 1016.7 hPa | 0 mm | - | 0 W/m² | - |
| 1787801258 | 13.33° C | 83% | 1016.7 hPa | 0 mm | - | 0 W/m² | - |
| 1787800658 | 13.33° C | 83% | 1017 hPa | 0 mm | - | 0 W/m² | - |
| 1787800058 | 13.33° C | 83% | 1016.9 hPa | 0 mm | - | 0 W/m² | - |
| 1787799458 | 13.33° C | 83% | 1017 hPa | 0 mm | - | 0 W/m² | - |
| 1787798858 | 13.33° C | 83% | 1016.8 hPa | 0 mm | - | 0 W/m² | - |
| 1787798258 | 13.33° C | 83% | 1016.8 hPa | 0 mm | - | 0 W/m² | - |
| 1787797658 | 13.33° C | 83% | 1017 hPa | 0 mm | - | 0 W/m² | - |
* Rain latest hour (hover to see other rain measurements)
** Current wind speed in m/s (hover to see current wind gust speed)